TimeCDT,TemperatureF,Dew PointF,Humidity,Sea Level PressureIn,VisibilityMPH,Wind Direction,Wind SpeedMPH,Gust SpeedMPH,PrecipitationIn,Events,Conditions,WindDirDegrees,DateUTC
1:05 AM,46.4,39.2,76,29.97,10.0,ESE,8.1,-,N/A,,Overcast,110,2012-10-23 06:05:00
1:40 AM,46.4,41.0,81,29.95,10.0,East,11.5,-,N/A,,Overcast,100,2012-10-23 06:40:00
1:53 AM,46.9,41.0,80,29.98,10.0,ESE,13.8,20.7,N/A,,Overcast,110,2012-10-23 06:53:00
2:53 AM,48.0,39.9,74,29.98,10.0,ESE,10.4,-,N/A,,Overcast,110,2012-10-23 07:53:00
3:53 AM,48.0,39.0,71,29.94,10.0,East,16.1,23.0,N/A,,Overcast,100,2012-10-23 08:53:00
4:04 AM,46.4,39.2,76,29.92,10.0,ESE,10.4,21.9,N/A,Thunderstorm,Thunderstorm,110,2012-10-23 09:04:00
4:15 AM,46.4,39.2,76,29.92,4.0,East,11.5,-,0.08,Rain,Rain,100,2012-10-23 09:15:00
4:53 AM,46.9,41.0,80,29.93,10.0,East,12.7,23.0,0.08,Rain,Light Rain,100,2012-10-23 09:53:00
5:05 AM,46.4,41.0,81,29.90,10.0,East,13.8,-,0.00,,Overcast,100,2012-10-23 10:05:00
5:48 AM,46.4,42.8,87,29.88,6.0,ESE,13.8,25.3,0.00,Rain,Light Rain,110,2012-10-23 10:48:00
5:53 AM,46.0,42.1,86,29.91,6.0,ESE,16.1,25.3,0.00,Rain,Light Rain,110,2012-10-23 10:53:00
6:53 AM,45.0,43.0,93,29.91,4.0,ESE,12.7,-,0.01,Rain,Light Rain,110,2012-10-23 11:53:00
7:53 AM,46.0,43.0,89,29.91,9.0,ESE,10.4,-,0.01,,Overcast,110,2012-10-23 12:53:00
8:53 AM,46.0,44.1,93,29.90,4.0,East,9.2,-,0.00,Rain,Light Rain,100,2012-10-23 13:53:00
9:49 AM,46.4,44.6,93,29.86,2.0,ESE,11.5,-,0.01,Rain,Light Rain,110,2012-10-23 14:49:00
9:53 AM,46.0,44.1,93,29.88,2.0,ESE,12.7,-,0.01,Rain,Light Rain,110,2012-10-23 14:53:00
10:09 AM,46.4,44.6,93,29.85,4.0,ESE,12.7,-,0.00,Rain,Light Rain,110,2012-10-23 15:09:00
10:53 AM,46.9,44.1,90,29.88,10.0,East,9.2,-,0.01,,Overcast,90,2012-10-23 15:53:00
11:53 AM,48.0,44.1,86,29.86,10.0,ESE,8.1,-,0.00,,Overcast,110,2012-10-23 16:53:00
1:53 PM,48.0,45.0,89,29.82,10.0,ESE,11.5,-,N/A,,Overcast,110,2012-10-23 18:53:00
2:53 PM,48.0,45.0,89,29.80,2.5,ESE,11.5,-,0.00,Rain,Light Rain,110,2012-10-23 19:53:00
3:11 PM,48.2,44.6,87,29.77,1.8,ESE,10.4,-,0.01,Rain,Light Rain,110,2012-10-23 20:11:00
3:42 PM,48.2,44.6,87,29.77,3.0,ESE,11.5,-,0.02,Rain,Light Rain,110,2012-10-23 20:42:00
3:53 PM,48.0,45.0,89,29.79,2.5,ESE,9.2,-,0.03,Rain,Light Rain,110,2012-10-23 20:53:00
4:08 PM,48.2,44.6,87,29.76,3.0,ESE,10.4,-,0.00,Rain,Light Rain,110,2012-10-23 21:08:00
4:23 PM,48.2,44.6,87,29.76,2.5,East,8.1,-,0.01,Rain,Light Rain,100,2012-10-23 21:23:00
4:33 PM,48.2,44.6,87,29.75,7.0,ESE,8.1,-,0.01,Rain,Light Rain,110,2012-10-23 21:33:00
4:53 PM,48.0,45.0,89,29.78,10.0,East,8.1,-,0.01,,Overcast,100,2012-10-23 21:53:00
5:53 PM,48.0,45.0,89,29.78,4.0,ESE,8.1,-,N/A,,Overcast,120,2012-10-23 22:53:00
6:14 PM,48.2,44.6,87,29.75,7.0,ESE,9.2,-,N/A,,Overcast,110,2012-10-23 23:14:00
6:53 PM,48.0,46.0,93,29.79,5.0,SE,8.1,-,N/A,,Overcast,130,2012-10-23 23:53:00
7:53 PM,48.0,46.0,93,29.78,6.0,SE,6.9,-,0.01,Rain,Light Rain,130,2012-10-24 00:53:00
8:53 PM,48.0,46.0,93,29.77,5.0,SE,5.8,-,0.00,,Overcast,130,2012-10-24 01:53:00
9:37 PM,48.2,46.4,93,29.76,2.5,SSE,4.6,-,N/A,,Overcast,150,2012-10-24 02:37:00
9:53 PM,48.9,46.9,93,29.79,2.5,SSE,3.5,-,N/A,,Overcast,160,2012-10-24 02:53:00
10:17 PM,48.2,48.2,100,29.76,1.5,SSE,5.8,-,0.01,,Overcast,160,2012-10-24 03:17:00
11:22 PM,50.0,48.2,94,29.75,2.0,SSE,6.9,-,N/A,,Overcast,150,2012-10-24 04:22:00
11:53 PM,50.0,48.0,93,29.78,2.0,South,4.6,-,N/A,,Overcast,180,2012-10-24 04:53:00